Home   Weather   Hagerstown   Past weeks
Flag for USA

Past Weather in Hagerstown, Maryland, USA — Yesterday and Last 2 Weeks

Now
78 °F

Mostly cloudy.


Feels Like: 81 °F
Forecast: 89 / 74 °F
Wind: 5 mph from South

Location: Washington County Regional Airport

Current Time: Jul 18, 2019 at 1:28:12 am

Latest Report: Jul 18, 2019 at 12:53 am


Visibility: 10 mi

Pressure: 29.90 "Hg

Humidity: 100%

Dew Point: 78 °F

Location of HagerstownLocation

Past Weather in Hagerstown — Graph

°F

Hagerstown Temperature Yesterday

Maximum temperature yesterday: 92 °F (at 12:53 pm)
Minimum temperature yesterday: 72 °F (at 3:53 am)
Average temperature yesterday: 80 °F

High & Low Weather Summary for the Past Weeks

 TemperatureHumidityPressure
High92 °F (Jul 6, 2:56 pm)100% (Jul 17, 1:53 am)30.16 "Hg (Jul 17, 1:53 am)
Low65 °F (Jul 9, 6:53 am)35% (Jul 15, 4:53 pm)29.80 "Hg (Jul 12, 4:10 am)
Average78 °F75%29.99 "Hg
* Reported Jul 2 11:53 pm — Jul 17 11:53 pm, Hagerstown. Weather by CustomWeather, © 2019

Note: Actual official high and low records may vary slightly from our data, if they occured in-between our weather recording intervals... More about our weather records

Advertising

Hagerstown Weather History for the Previous 24 Hours

Scroll right to see more
 ConditionsComfort  
Time TempWeatherWind HumidityBarometerVisibility
11:53 pm
Wed, Jul 17
78 °FMostly cloudy.No wind100%29.90 "Hg10 mi
10:53 pm78 °FMostly cloudy.No wind100%29.91 "Hg10 mi
10:08 pm77 °FThunderstorms. Passing clouds.N/A100%29.91 "Hg10 mi
8:53 pm79 °FPassing clouds.7 mph94%29.90 "Hg10 mi
7:53 pm79 °FPassing clouds.8 mph97%29.90 "Hg10 mi
6:53 pm80 °FSunny.7 mph94%29.89 "Hg10 mi
5:53 pm80 °FPartly sunny.7 mph90%29.90 "Hg10 mi
5:06 pm77 °FPartly sunny.6 mph100%29.89 "Hg10 mi
4:53 pm78 °FThundershowers. Partly sunny.13 mph100%29.91 "Hg10 mi
4:34 pm80 °FThundershowers. Partly sunny.13 mph100%29.90 "Hg9 mi
4:09 pm83 °FThunderstorms. Mostly cloudy.3 mph82%29.90 "Hg9 mi
3:53 pm83 °FLight rain. Broken clouds.No wind88%29.90 "Hg10 mi
3:28 pm81 °FLight rain. Broken clouds.9 mph94%29.92 "Hg10 mi
3:04 pm85 °FThundershowers. Partly sunny.5 mph75%29.92 "Hg10 mi
2:53 pm85 °FScattered clouds.3 mph77%29.93 "Hg10 mi
2:29 pm81 °FLight rain. Broken clouds.6 mph91%29.93 "Hg7 mi
1:53 pm83 °FLight rain. Partly sunny.7 mph79%29.95 "Hg10 mi
12:53 pm92 °FScattered clouds.10 mph54%29.97 "Hg10 mi
11:53 am90 °FSunny.7 mph57%29.98 "Hg10 mi
10:53 am88 °FSunny.6 mph63%30.00 "Hg10 mi
9:53 am84 °FSunny.5 mph77%30.01 "Hg10 mi
8:53 am81 °FSunny.5 mph88%30.01 "Hg10 mi
7:53 am77 °FSunny.6 mph100%30.01 "Hg7 mi
6:53 am74 °FSunny.3 mph100%30.00 "Hg7 mi
5:53 am74 °FClear.No wind100%30.00 "Hg10 mi
4:53 am72 °FClear.No wind100%30.00 "Hg10 mi
3:53 am72 °FClear.No wind100%30.00 "Hg10 mi
2:53 am76 °FClear.No wind100%30.01 "Hg10 mi
1:53 am75 °FClear.3 mph100%30.03 "Hg10 mi
Weather by CustomWeather, © 2019

See weather overview